YMA7608 SBMN-SBSN

Flight info

Callsign YMA7608
Flight time 0h 53m
Altitude 31000
Route SBMN DOLTI UZ81 TOBUX SBSN
Aircraft B738/M-VGDW/C

Departure

Time 2026-05-09 08:34
Airport Ponta Pelada Airport / Manaus Air Base (SBMN)

Arrival

Time 2026-05-09 09:27
Airport Santarém - Maestro Wilson Fonseca International Airport (SBSN)
Time Latitude Longitude Altitude Speed Heading
2026-05-09 07:28 -3.14617 -59.99263 237 ft 0 kts 258°
2026-05-09 08:29 -3.14621 -59.99276 237 ft 5 kts 237°
2026-05-09 08:29 -3.14656 -59.99294 236 ft 6 kts 245°
2026-05-09 08:29 -3.14668 -59.99341 235 ft 8 kts 256°
2026-05-09 08:29 -3.14682 -59.99400 234 ft 9 kts 256°
2026-05-09 08:30 -3.14699 -59.99465 233 ft 9 kts 256°
2026-05-09 08:30 -3.14718 -59.99540 230 ft 12 kts 252°
2026-05-09 08:30 -3.14786 -59.99603 226 ft 14 kts 219°
2026-05-09 08:30 -3.14821 -59.99619 225 ft 4 kts 158°
2026-05-09 08:31 -3.14836 -59.99596 226 ft 3 kts 102°
2026-05-09 08:31 -3.14836 -59.99581 226 ft 1 kts 83°
2026-05-09 08:31 -3.14833 -59.99569 227 ft 0 kts 76°
2026-05-09 08:34 -3.14827 -59.99542 228 ft 25 kts 76°
2026-05-09 08:34 -3.14700 -59.99036 236 ft 122 kts 75°
2026-05-09 08:34 -3.14444 -59.97970 510 ft 176 kts 77°
2026-05-09 08:34 -3.14206 -59.96887 1362 ft 166 kts 84°
2026-05-09 08:35 -3.14140 -59.95606 1920 ft 203 kts 85°
2026-05-09 08:35 -3.14059 -59.94048 2511 ft 245 kts 85°
2026-05-09 08:35 -3.13958 -59.92274 3187 ft 263 kts 85°
2026-05-09 08:35 -3.13854 -59.90474 3864 ft 262 kts 85°
2026-05-09 08:36 -3.13738 -59.88654 4069 ft 265 kts 86°
2026-05-09 08:36 -3.13650 -59.86808 4084 ft 261 kts 86°
2026-05-09 08:36 -3.13563 -59.85008 4090 ft 260 kts 86°
2026-05-09 08:36 -3.13477 -59.83193 4093 ft 261 kts 86°
2026-05-09 08:37 -3.13400 -59.81570 4090 ft 260 kts 86°
2026-05-09 08:37 -3.13316 -59.79761 4093 ft 259 kts 86°
2026-05-09 08:37 -3.13235 -59.77952 4090 ft 260 kts 88°
2026-05-09 08:37 -3.13188 -59.76157 4375 ft 255 kts 85°
2026-05-09 08:38 -3.13055 -59.74372 5102 ft 259 kts 85°
2026-05-09 08:38 -3.12908 -59.72577 5825 ft 262 kts 85°
2026-05-09 08:38 -3.12778 -59.70764 6541 ft 265 kts 86°
2026-05-09 08:38 -3.12648 -59.68930 7209 ft 268 kts 86°
2026-05-09 08:39 -3.12544 -59.67059 7911 ft 270 kts 86°
2026-05-09 08:39 -3.12454 -59.65161 8652 ft 275 kts 88°
2026-05-09 08:39 -3.12318 -59.63276 9334 ft 277 kts 79°
2026-05-09 08:39 -3.11939 -59.61378 10034 ft 280 kts 79°
2026-05-09 08:40 -3.11549 -59.59438 10721 ft 296 kts 79°
2026-05-09 08:40 -3.11129 -59.57361 11430 ft 319 kts 79°
2026-05-09 08:40 -3.10671 -59.55126 12133 ft 340 kts 79°
2026-05-09 08:40 -3.10179 -59.52741 12829 ft 359 kts 79°
2026-05-09 08:41 -3.09697 -59.50281 13470 ft 363 kts 80°
2026-05-09 08:41 -3.09223 -59.47794 14080 ft 363 kts 79°
2026-05-09 08:41 -3.08755 -59.45309 14686 ft 366 kts 80°
2026-05-09 08:41 -3.08286 -59.42805 15263 ft 371 kts 80°
2026-05-09 08:42 -3.07817 -59.40275 15843 ft 373 kts 79°
2026-05-09 08:42 -3.07339 -59.37716 16404 ft 377 kts 79°
2026-05-09 08:42 -3.06817 -59.35143 16950 ft 381 kts 79°
2026-05-09 08:42 -3.06289 -59.32535 17469 ft 385 kts 78°
2026-05-09 08:43 -3.05760 -59.29912 17980 ft 386 kts 78°
2026-05-09 08:43 -3.05228 -59.27263 18478 ft 389 kts 79°
2026-05-09 08:43 -3.04738 -59.24588 18976 ft 393 kts 79°
2026-05-09 08:43 -3.04250 -59.21919 19454 ft 394 kts 79°
2026-05-09 08:44 -3.03753 -59.19207 19939 ft 398 kts 79°
2026-05-09 08:44 -3.03209 -59.16493 20425 ft 400 kts 79°
2026-05-09 08:44 -3.02647 -59.13737 20893 ft 402 kts 78°
2026-05-09 08:44 -3.02083 -59.10970 21356 ft 404 kts 79°
2026-05-09 08:45 -3.01563 -59.08202 21825 ft 409 kts 79°
2026-05-09 08:45 -3.01123 -59.05849 22208 ft 411 kts 79°
2026-05-09 08:45 -3.00594 -59.03008 22670 ft 413 kts 79°
2026-05-09 08:45 -3.00071 -59.00203 23112 ft 417 kts 79°
2026-05-09 08:46 -2.99529 -58.97334 23566 ft 422 kts 79°
2026-05-09 08:46 -2.98982 -58.94435 24006 ft 427 kts 79°
2026-05-09 08:46 -2.98426 -58.91499 24451 ft 430 kts 79°
2026-05-09 08:46 -2.97866 -58.88549 24896 ft 434 kts 79°
2026-05-09 08:47 -2.97304 -58.85616 25318 ft 437 kts 79°
2026-05-09 08:47 -2.96725 -58.82605 25749 ft 441 kts 79°
2026-05-09 08:47 -2.96140 -58.79585 26179 ft 446 kts 79°
2026-05-09 08:47 -2.95550 -58.76554 26593 ft 451 kts 79°
2026-05-09 08:48 -2.94943 -58.73439 27022 ft 456 kts 79°
2026-05-09 08:48 -2.94335 -58.70327 27440 ft 460 kts 79°
2026-05-09 08:48 -2.93720 -58.67176 27861 ft 464 kts 79°
2026-05-09 08:48 -2.93093 -58.63983 28285 ft 468 kts 79°
2026-05-09 08:49 -2.92492 -58.60794 28704 ft 471 kts 81°
2026-05-09 08:49 -2.91915 -58.57562 29110 ft 474 kts 81°
2026-05-09 08:49 -2.91329 -58.54321 29507 ft 477 kts 79°
2026-05-09 08:49 -2.90690 -58.51056 29907 ft 480 kts 79°
2026-05-09 08:50 -2.90053 -58.47781 30306 ft 483 kts 79°
2026-05-09 08:50 -2.89410 -58.44459 30709 ft 485 kts 79°
2026-05-09 08:50 -2.88768 -58.41125 30973 ft 491 kts 79°
2026-05-09 08:51 -2.87472 -58.34365 30976 ft 495 kts 79°
2026-05-09 08:51 -2.86177 -58.27649 30976 ft 491 kts 79°
2026-05-09 08:52 -2.84883 -58.20965 30978 ft 492 kts 79°
2026-05-09 08:52 -2.83583 -58.14277 30973 ft 492 kts 79°
2026-05-09 08:53 -2.82273 -58.07533 30976 ft 493 kts 79°
2026-05-09 08:53 -2.80963 -58.00845 30975 ft 492 kts 79°
2026-05-09 08:54 -2.79650 -57.94142 30969 ft 493 kts 79°
2026-05-09 08:54 -2.78376 -57.87425 30969 ft 491 kts 79°
2026-05-09 08:55 -2.77583 -57.80680 30969 ft 492 kts 85°
2026-05-09 08:55 -2.76824 -57.73862 30967 ft 491 kts 83°
2026-05-09 08:56 -2.76043 -57.67133 30970 ft 491 kts 84°
2026-05-09 08:56 -2.75281 -57.60358 30972 ft 491 kts 84°
2026-05-09 08:57 -2.74517 -57.53582 30969 ft 491 kts 84°
2026-05-09 08:57 -2.73757 -57.46845 30972 ft 490 kts 84°
2026-05-09 08:58 -2.72985 -57.40051 30972 ft 490 kts 84°
2026-05-09 08:58 -2.72209 -57.33307 30966 ft 491 kts 84°
2026-05-09 08:59 -2.71421 -57.26510 30965 ft 490 kts 84°
2026-05-09 08:59 -2.70641 -57.19756 30966 ft 490 kts 84°
2026-05-09 09:00 -2.69856 -57.13029 30966 ft 489 kts 84°
2026-05-09 09:00 -2.69059 -57.06265 30961 ft 489 kts 84°
2026-05-09 09:01 -2.68269 -56.99543 30957 ft 489 kts 84°
2026-05-09 09:01 -2.67469 -56.92774 30963 ft 490 kts 84°
2026-05-09 09:02 -2.66764 -56.86027 30963 ft 489 kts 85°
2026-05-09 09:02 -2.65987 -56.79281 30963 ft 489 kts 84°
2026-05-09 09:03 -2.65159 -56.72524 30960 ft 489 kts 84°
2026-05-09 09:03 -2.64437 -56.65803 30955 ft 488 kts 84°
2026-05-09 09:04 -2.63683 -56.59081 30960 ft 488 kts 84°
2026-05-09 09:04 -2.62854 -56.52342 30961 ft 488 kts 83°
2026-05-09 09:05 -2.62058 -56.45622 30962 ft 487 kts 85°
2026-05-09 09:05 -2.61313 -56.38878 30974 ft 489 kts 84°
2026-05-09 09:06 -2.60579 -56.32087 30339 ft 504 kts 84°
2026-05-09 09:06 -2.60151 -56.28673 29683 ft 490 kts 83°
2026-05-09 09:06 -2.59727 -56.25329 29151 ft 477 kts 84°
2026-05-09 09:06 -2.59352 -56.22089 28292 ft 474 kts 84°
2026-05-09 09:07 -2.58967 -56.18870 27615 ft 460 kts 84°
2026-05-09 09:07 -2.58589 -56.15731 27077 ft 452 kts 84°
2026-05-09 09:07 -2.58219 -56.12655 26533 ft 449 kts 84°
2026-05-09 09:07 -2.57839 -56.09534 25683 ft 451 kts 84°
2026-05-09 09:08 -2.57463 -56.06459 24881 ft 440 kts 84°
2026-05-09 09:08 -2.57099 -56.03506 24347 ft 426 kts 84°
2026-05-09 09:08 -2.56741 -56.00587 23822 ft 422 kts 84°
2026-05-09 09:08 -2.56386 -55.97694 23292 ft 420 kts 84°
2026-05-09 09:09 -2.56062 -55.95065 22507 ft 417 kts 84°
2026-05-09 09:09 -2.55719 -55.92264 21934 ft 404 kts 84°
2026-05-09 09:09 -2.55387 -55.89527 21349 ft 393 kts 84°
2026-05-09 09:09 -2.55068 -55.86857 20757 ft 383 kts 84°
2026-05-09 09:10 -2.54760 -55.84277 20041 ft 364 kts 84°
2026-05-09 09:10 -2.54470 -55.81788 19494 ft 358 kts 84°
2026-05-09 09:10 -2.54194 -55.79355 18922 ft 355 kts 84°
2026-05-09 09:10 -2.54025 -55.77826 18559 ft 355 kts 84°
2026-05-09 09:11 -2.54022 -55.77803 18554 ft 355 kts 84°
2026-05-09 09:11 -2.53751 -55.75342 17973 ft 353 kts 84°
2026-05-09 09:11 -2.53457 -55.72926 17395 ft 352 kts 83°
2026-05-09 09:11 -2.53208 -55.70863 16900 ft 350 kts 83°
2026-05-09 09:12 -2.53010 -55.69223 16502 ft 347 kts 83°
2026-05-09 09:12 -2.52753 -55.66869 15926 ft 343 kts 83°
2026-05-09 09:12 -2.52482 -55.64489 15333 ft 340 kts 84°
2026-05-09 09:13 -2.52223 -55.62173 14685 ft 331 kts 83°
2026-05-09 09:13 -2.51968 -55.59977 14061 ft 314 kts 83°
2026-05-09 09:13 -2.51734 -55.57853 13457 ft 300 kts 84°
2026-05-09 09:13 -2.51515 -55.55788 12915 ft 299 kts 84°
2026-05-09 09:14 -2.51314 -55.53718 12329 ft 301 kts 84°
2026-05-09 09:14 -2.51115 -55.51647 11740 ft 302 kts 85°
2026-05-09 09:14 -2.50971 -55.49559 11151 ft 302 kts 87°
2026-05-09 09:14 -2.50879 -55.47469 10569 ft 302 kts 87°
2026-05-09 09:15 -2.50822 -55.46184 10208 ft 303 kts 87°
2026-05-09 09:15 -2.50758 -55.44774 9801 ft 301 kts 86°
2026-05-09 09:15 -2.50520 -55.42813 9683 ft 274 kts 82°
2026-05-09 09:16 -2.50254 -55.40908 9693 ft 275 kts 82°
2026-05-09 09:16 -2.49750 -55.37115 9741 ft 277 kts 83°
2026-05-09 09:16 -2.49518 -55.35204 9656 ft 280 kts 83°
2026-05-09 09:17 -2.49497 -55.35030 9637 ft 280 kts 83°
2026-05-09 09:17 -2.49367 -55.33956 9502 ft 279 kts 83°
2026-05-09 09:18 -2.49134 -55.32051 9187 ft 276 kts 83°
2026-05-09 09:18 -2.48932 -55.30138 8919 ft 273 kts 84°
2026-05-09 09:18 -2.48736 -55.28256 8606 ft 272 kts 84°
2026-05-09 09:18 -2.48539 -55.26409 8331 ft 264 kts 84°
2026-05-09 09:19 -2.48340 -55.24573 8019 ft 263 kts 84°
2026-05-09 09:19 -2.48146 -55.22795 7725 ft 257 kts 84°
2026-05-09 09:19 -2.47949 -55.21027 7454 ft 253 kts 84°
2026-05-09 09:19 -2.47755 -55.19301 7152 ft 246 kts 84°
2026-05-09 09:20 -2.47583 -55.17614 6875 ft 244 kts 85°
2026-05-09 09:20 -2.47424 -55.15938 6619 ft 234 kts 85°
2026-05-09 09:20 -2.47264 -55.14315 6306 ft 234 kts 85°
2026-05-09 09:20 -2.47105 -55.12707 6024 ft 230 kts 85°
2026-05-09 09:21 -2.46955 -55.11110 5832 ft 227 kts 86°
2026-05-09 09:21 -2.46829 -55.09543 5577 ft 225 kts 86°
2026-05-09 09:21 -2.46732 -55.07993 5353 ft 225 kts 87°
2026-05-09 09:21 -2.46681 -55.06446 5090 ft 220 kts 84°
2026-05-09 09:22 -2.46416 -55.04943 4866 ft 219 kts 80°
2026-05-09 09:22 -2.46150 -55.03473 4638 ft 215 kts 80°
2026-05-09 09:22 -2.45884 -55.01998 4354 ft 215 kts 80°
2026-05-09 09:22 -2.45625 -55.00546 4077 ft 209 kts 81°
2026-05-09 09:23 -2.45400 -54.99111 3824 ft 208 kts 81°
2026-05-09 09:23 -2.45192 -54.97705 3548 ft 203 kts 82°
2026-05-09 09:23 -2.44998 -54.96307 3284 ft 201 kts 79°
2026-05-09 09:23 -2.44764 -54.94952 3026 ft 197 kts 79°
2026-05-09 09:24 -2.44536 -54.93630 2768 ft 189 kts 80°
2026-05-09 09:24 -2.44319 -54.92365 2519 ft 182 kts 80°
2026-05-09 09:24 -2.44109 -54.91136 2301 ft 176 kts 79°
2026-05-09 09:24 -2.43910 -54.89944 2064 ft 171 kts 80°
2026-05-09 09:25 -2.43721 -54.88800 1955 ft 163 kts 79°
2026-05-09 09:25 -2.43535 -54.87675 1842 ft 162 kts 80°
2026-05-09 09:25 -2.43356 -54.86582 1619 ft 157 kts 80°
2026-05-09 09:25 -2.43183 -54.85513 1396 ft 154 kts 80°
2026-05-09 09:26 -2.43029 -54.84472 1156 ft 150 kts 81°
2026-05-09 09:26 -2.42883 -54.83477 924 ft 144 kts 81°
2026-05-09 09:26 -2.42736 -54.82484 695 ft 144 kts 81°
2026-05-09 09:26 -2.42585 -54.81486 465 ft 145 kts 81°
2026-05-09 09:27 -2.42445 -54.80494 238 ft 143 kts 79°
2026-05-09 09:27 -2.42296 -54.79611 200 ft 70 kts 81°
2026-05-09 09:27 -2.42230 -54.79224 205 ft 53 kts 81°
2026-05-09 09:27 -2.42184 -54.78918 201 ft 31 kts 79°
2026-05-09 09:28 -2.42178 -54.78762 197 ft 12 kts 117°
2026-05-09 09:28 -2.42238 -54.78700 197 ft 12 kts 137°
2026-05-09 09:28 -2.42297 -54.78645 197 ft 11 kts 137°
2026-05-09 09:28 -2.42352 -54.78593 197 ft 10 kts 131°
2026-05-09 09:29 -2.42333 -54.78528 196 ft 10 kts 58°
2026-05-09 09:29 -2.42316 -54.78474 194 ft 3 kts 120°
2026-05-09 09:29 -2.42338 -54.78468 194 ft 2 kts 173°
2026-05-09 09:29 -2.42354 -54.78464 194 ft 1 kts 167°